• In Italy
  • List of Countries
  • For 7 days
  • Water Temperature
  • Satellite Maps
  • Weather Map
  • Weather Widgets
  • user-avatar
    Login

    Hourly Weather Ambon

    Today, 18 November, Saturday

    Time Temperature Precipitation Wind Pressure Humidity
    00:00 +27°C° 0.1 mm 2 mps 741 mmHg 97%
    01:00 +27°C° 0.3 mm 2 mps 741 mmHg 98%
    02:00 +27°C° 0.3 mm 2 mps 741 mmHg 98%
    03:00 +27°C° 0 mm 2 mps 741 mmHg 98%
    04:00 +27°C° 0.2 mm 2 mps 741 mmHg 98%
    05:00 +27°C° 0.2 mm 2 mps 741 mmHg 98%
    06:00 +27°C° 0.2 mm 2 mps 741 mmHg 98%
    07:00 +28°C° 0 mm 2 mps 742 mmHg 93%
    08:00 +29°C° 0 mm 2 mps 742 mmHg 88%
    09:00 +31°C° 0 mm 1 mps 742 mmHg 83%
    10:00 +32°C° 0 mm 1 mps 742 mmHg 79%
    11:00 +32°C° 0 mm 1 mps 742 mmHg 75%
    12:00 +33°C° 0 mm 1 mps 742 mmHg 71%
    13:00 +32°C° 0.1 mm 1 mps 741 mmHg 76%
    14:00 +31°C° 0.1 mm 1 mps 741 mmHg 80%
    15:00 +31°C° 0 mm 1 mps 741 mmHg 83%
    16:00 +30°C° 0 mm 1 mps 741 mmHg 86%
    17:00 +29°C° 0 mm 1 mps 741 mmHg 90%
    18:00 +28°C° 0 mm 2 mps 741 mmHg 94%
    19:00 +28°C° 0 mm 1 mps 741 mmHg 94%
    20:00 +28°C° 0 mm 1 mps 741 mmHg 95%
    21:00 +27°C° 0 mm 2 mps 742 mmHg 97%
    22:00 +27°C° 0 mm 2 mps 742 mmHg 97%
    23:00 +27°C° 0 mm 2 mps 742 mmHg 97%

    Tomorrow, 19 November, Sunday

    Time Temperature Precipitation Wind Pressure Humidity
    00:00 +27°C° 0 mm 3 mps 742 mmHg 97%
    01:00 +27°C° 0 mm 3 mps 742 mmHg 97%
    02:00 +27°C° 0 mm 3 mps 742 mmHg 97%
    03:00 +27°C° 0 mm 3 mps 741 mmHg 97%
    04:00 +27°C° 0 mm 3 mps 741 mmHg 97%
    05:00 +27°C° 0 mm 2 mps 741 mmHg 97%
    06:00 +27°C° 0 mm 2 mps 741 mmHg 97%
    07:00 +28°C° 0 mm 2 mps 742 mmHg 93%
    08:00 +29°C° 0 mm 2 mps 742 mmHg 90%
    09:00 +30°C° 0 mm 2 mps 742 mmHg 86%
    10:00 +31°C° 0 mm 2 mps 742 mmHg 83%
    11:00 +31°C° 0 mm 2 mps 742 mmHg 80%
    12:00 +32°C° 0 mm 2 mps 742 mmHg 77%
    13:00 +31°C° 0.4 mm 2 mps 741 mmHg 81%
    14:00 +31°C° 0.4 mm 3 mps 741 mmHg 84%
    15:00 +30°C° 0.4 mm 3 mps 741 mmHg 88%
    16:00 +29°C° 2.2 mm 3 mps 741 mmHg 90%
    17:00 +29°C° 2.2 mm 3 mps 741 mmHg 92%
    18:00 +28°C° 2.2 mm 3 mps 741 mmHg 94%
    19:00 +28°C° 1.6 mm 3 mps 741 mmHg 94%
    20:00 +28°C° 1.6 mm 3 mps 742 mmHg 94%
    21:00 +27°C° 1.6 mm 2 mps 742 mmHg 94%
    22:00 +27°C° 1 mm 2 mps 742 mmHg 95%
    23:00 +27°C° 1 mm 2 mps 743 mmHg 95%

    Day after tomorrow, 20 November, Monday

    Time Temperature Precipitation Wind Pressure Humidity
    00:00 +27°C° 1 mm 2 mps 743 mmHg 95%
    01:00 +27°C° 0.1 mm 2 mps 742 mmHg 95%
    02:00 +27°C° 0.1 mm 2 mps 742 mmHg 95%
    03:00 +27°C° 0.1 mm 2 mps 742 mmHg 95%
    04:00 +27°C° 0 mm 2 mps 742 mmHg 95%
    05:00 +27°C° 0 mm 2 mps 742 mmHg 95%
    06:00 +27°C° 0 mm 2 mps 742 mmHg 95%
    07:00 +27°C° 0.1 mm 2 mps 743 mmHg 95%
    08:00 +28°C° 0.1 mm 1 mps 743 mmHg 94%
    09:00 +28°C° 0.1 mm 1 mps 743 mmHg 94%
    10:00 +29°C° 0.1 mm 1 mps 743 mmHg 91%
    11:00 +29°C° 0.1 mm 1 mps 743 mmHg 89%
    12:00 +30°C° 0.1 mm 1 mps 743 mmHg 86%
    13:00 +30°C° 0 mm 2 mps 742 mmHg 87%
    14:00 +30°C° 0 mm 2 mps 742 mmHg 88%
    15:00 +30°C° 0 mm 2 mps 741 mmHg 89%
    16:00 +29°C° 0 mm 2 mps 741 mmHg 90%
    17:00 +28°C° 0 mm 2 mps 741 mmHg 91%
    18:00 +28°C° 0 mm 2 mps 741 mmHg 92%
    19:00 +28°C° 0 mm 2 mps 742 mmHg 93%
    20:00 +27°C° 0 mm 2 mps 742 mmHg 94%
    21:00 +27°C° 0 mm 2 mps 743 mmHg 95%
    22:00 +27°C° 0 mm 2 mps 743 mmHg 95%
    23:00 +27°C° 0 mm 2 mps 743 mmHg 95%

    21 November, Tuesday

    Time Temperature Precipitation Wind Pressure Humidity
    00:00 +27°C° 0 mm 2 mps 742 mmHg 95%
    01:00 +27°C° 0 mm 2 mps 742 mmHg 95%
    02:00 +27°C° 0 mm 2 mps 741 mmHg 95%
    03:00 +27°C° 0 mm 2 mps 741 mmHg 95%
    04:00 +27°C° 0 mm 2 mps 741 mmHg 94%
    05:00 +27°C° 0 mm 1 mps 741 mmHg 94%
    06:00 +27°C° 0 mm 1 mps 741 mmHg 94%
    07:00 +28°C° 0 mm 1 mps 742 mmHg 89%
    08:00 +29°C° 0 mm 1 mps 742 mmHg 83%
    09:00 +31°C° 0 mm 1 mps 742 mmHg 78%
    10:00 +31°C° 0 mm 2 mps 742 mmHg 76%
    11:00 +32°C° 0 mm 2 mps 742 mmHg 75%
    12:00 +34°C° 0 mm 3 mps 742 mmHg 73%
    13:00 +33°C° 0.1 mm 3 mps 741 mmHg 76%
    14:00 +33°C° 0.1 mm 4 mps 740 mmHg 79%
    15:00 +32°C° 0.1 mm 4 mps 740 mmHg 82%
    16:00 +32°C° 0.1 mm 4 mps 740 mmHg 85%
    17:00 +30°C° 0.1 mm 4 mps 740 mmHg 88%
    18:00 +29°C° 0.1 mm 4 mps 740 mmHg 92%
    19:00 +28°C° 0.3 mm 3 mps 740 mmHg 92%
    20:00 +28°C° 0.3 mm 3 mps 741 mmHg 93%
    21:00 +28°C° 0.3 mm 3 mps 742 mmHg 94%
    22:00 +28°C° 0.9 mm 3 mps 742 mmHg 95%
    23:00 +28°C° 0.9 mm 3 mps 741 mmHg 95%

    22 November, Wednesday

    Time Temperature Precipitation Wind Pressure Humidity
    00:00 +27°C° 0.9 mm 3 mps 741 mmHg 96%
    01:00 +27°C° 1.7 mm 3 mps 741 mmHg 96%
    02:00 +27°C° 1.7 mm 3 mps 740 mmHg 95%
    03:00 +27°C° 1.7 mm 3 mps 740 mmHg 95%
    04:00 +27°C° 2.3 mm 3 mps 740 mmHg 95%
    05:00 +27°C° 2.3 mm 2 mps 740 mmHg 95%
    06:00 +27°C° 2.3 mm 2 mps 740 mmHg 95%
    07:00 +27°C° 2.9 mm 2 mps 741 mmHg 95%
    08:00 +28°C° 2.9 mm 2 mps 742 mmHg 95%
    09:00 +28°C° 2.9 mm 2 mps 742 mmHg 96%
    10:00 +28°C° 0.6 mm 2 mps 742 mmHg 96%
    11:00 +28°C° 0.6 mm 1 mps 742 mmHg 95%
    12:00 +28°C° 0.6 mm 1 mps 741 mmHg 95%
    13:00 +28°C° 0.4 mm 2 mps 741 mmHg 94%
    14:00 +28°C° 0.4 mm 2 mps 740 mmHg 93%
    15:00 +28°C° 0.4 mm 2 mps 739 mmHg 91%
    16:00 +28°C° 0.1 mm 2 mps 740 mmHg 92%
    17:00 +27°C° 0.1 mm 2 mps 740 mmHg 93%
    18:00 +27°C° 0.1 mm 2 mps 740 mmHg 93%
    19:00 +27°C° 0 mm 2 mps 741 mmHg 93%
    20:00 +26°C° 0 mm 2 mps 741 mmHg 93%
    21:00 +26°C° 0 mm 2 mps 742 mmHg 93%
    22:00 +26°C° 0 mm 2 mps 742 mmHg 94%
    23:00 +26°C° 0 mm 2 mps 742 mmHg 94%

    23 November, Thursday

    Time Temperature Precipitation Wind Pressure Humidity
    00:00 +26°C° 0 mm 2 mps 741 mmHg 94%
    01:00 +26°C° 0 mm 2 mps 741 mmHg 95%
    02:00 +26°C° 0 mm 2 mps 740 mmHg 95%
    03:00 +26°C° 0 mm 2 mps 740 mmHg 96%
    04:00 +26°C° 0 mm 2 mps 740 mmHg 97%
    05:00 +27°C° 0 mm 2 mps 740 mmHg 97%
    06:00 +27°C° 0 mm 2 mps 740 mmHg 98%
    07:00 +28°C° 0 mm 2 mps 741 mmHg 94%
    08:00 +29°C° 0 mm 2 mps 741 mmHg 91%
    09:00 +30°C° 0 mm 2 mps 742 mmHg 88%
    10:00 +30°C° 0 mm 2 mps 742 mmHg 87%
    11:00 +30°C° 0 mm 2 mps 741 mmHg 85%
    12:00 +31°C° 0 mm 3 mps 741 mmHg 83%
    13:00 +30°C° 0.1 mm 3 mps 740 mmHg 86%
    14:00 +30°C° 0.1 mm 3 mps 740 mmHg 88%
    15:00 +29°C° 0.1 mm 3 mps 739 mmHg 91%
    16:00 +29°C° 0.1 mm 3 mps 740 mmHg 92%
    17:00 +28°C° 0.1 mm 4 mps 740 mmHg 94%
    18:00 +27°C° 0.1 mm 4 mps 740 mmHg 95%
    19:00 +27°C° 0.1 mm 4 mps 741 mmHg 96%
    20:00 +27°C° 0.1 mm 3 mps 741 mmHg 96%
    21:00 +27°C° 0.1 mm 3 mps 742 mmHg 96%
    22:00 +27°C° 0.2 mm 3 mps 742 mmHg 96%
    23:00 +27°C° 0.2 mm 3 mps 742 mmHg 96%
    Show more